| time (UTC) | temp F | wind direction | speed MPH | gust MPH | rain 1hr in | rain 24hr in | rain mn in | humidity % | barometer mb |
| 20260506232704 | 44 | 110 | 0.0 | 1.0 | 0.00 | 0.01 | 0.01 | 87 | |
| 20260506231804 | 44 | 121 | 0.0 | 1.0 | 0.00 | 0.01 | 0.01 | 86 | |
| 20260506230904 | 44 | 0 | 0.0 | 0.0 | 0.00 | 0.01 | 0.01 | 86 | |
| 20260506230004 | 44 | 0 | 0.0 | 0.0 | 0.00 | 0.01 | 0.01 | 85 | |
| 20260506225404 | 45 | 0 | 0.0 | 0.0 | 0.00 | 0.01 | 0.01 | 84 | |
| 20260506224504 | 45 | 0 | 0.0 | 0.0 | 0.00 | 0.01 | 0.01 | 84 | |
| 20260506223603 | 46 | 113 | 1.0 | 3.0 | 0.00 | 0.01 | 0.01 | 83 | |
| 20260506222704 | 46 | 77 | 0.0 | 2.0 | 0.00 | 0.01 | 0.01 | 82 | |
| 20260506221804 | 47 | 294 | 0.0 | 2.0 | 0.00 | 0.01 | 0.01 | 81 | |
| 20260506220903 | 47 | 219 | 0.0 | 2.0 | 0.00 | 0.01 | 0.01 | 80 | |
| 20260506220005 | 48 | 176 | 1.0 | 4.0 | 0.00 | 0.01 | 0.01 | 79 | |
| 20260506215404 | 48 | 170 | 1.0 | 5.0 | 0.00 | 0.01 | 0.01 | 79 | |
| 20260506214503 | 48 | 185 | 2.0 | 5.0 | 0.00 | 0.01 | 0.01 | 80 | |
| 20260506213604 | 47 | 157 | 4.0 | 10.0 | 0.00 | 0.01 | 0.01 | 82 | |
| 20260506212703 | 47 | 125 | 0.0 | 1.0 | 0.00 | 0.01 | 0.01 | 83 | |
| 20260506211804 | 47 | 76 | 0.0 | 3.0 | 0.00 | 0.01 | 0.01 | 83 | |
| 20260506210904 | 47 | 80 | 0.0 | 3.0 | 0.00 | 0.01 | 0.01 | 82 | |
| 20260506210004 | 48 | 231 | 1.0 | 2.0 | 0.00 | 0.01 | 0.01 | 82 | |
| 20260506205404 | 48 | 224 | 0.0 | 2.0 | 0.00 | 0.01 | 0.01 | 81 | |
| 20260506204504 | 48 | 0 | 0.0 | 0.0 | 0.00 | 0.01 | 0.01 | 81 | |
| 20260506203604 | 49 | 247 | 0.0 | 1.0 | 0.00 | 0.01 | 0.01 | 79 | |
| 20260506202703 | 50 | 247 | 0.0 | 1.0 | 0.00 | 0.01 | 0.01 | 79 | |
| 20260506201824 | 51 | 53 | 0.0 | 2.0 | 0.00 | 0.01 | 0.01 | 77 | |
| 20260506200904 | 52 | 51 | 0.0 | 3.0 | 0.00 | 0.01 | 0.01 | 76 | |
| 20260506200025 | 52 | 53 | 0.0 | 3.0 | 0.00 | 0.01 | 0.01 | 75 | |
| 20260506195424 | 52 | 233 | 0.0 | 2.0 | 0.00 | 0.01 | 0.01 | 74 | |
| 20260506194503 | 53 | 248 | 2.0 | 3.0 | 0.00 | 0.01 | 0.01 | 74 | |
| 20260506193604 | 55 | 257 | 0.0 | 1.0 | 0.00 | 0.01 | 0.01 | 72 | |
| 20260506192703 | 56 | 138 | 1.0 | 2.0 | 0.00 | 0.01 | 0.01 | 67 | |
| 20260506191803 | 57 | 131 | 1.0 | 3.0 | 0.00 | 0.01 | 0.01 | 63 | |
| 20260506190903 | 58 | 0 | 0.0 | 0.0 | 0.00 | 0.01 | 0.01 | 63 | |
| 20260506190004 | 59 | 12 | 0.0 | 2.0 | 0.00 | 0.01 | 0.01 | 59 | |
| 20260506185404 | 59 | 7 | 0.0 | 2.0 | 0.00 | 0.01 | 0.01 | 60 | |
| 20260506184504 | 60 | 340 | 1.0 | 3.0 | 0.00 | 0.01 | 0.01 | 55 | |
| 20260506183624 | 60 | 1 | 1.0 | 3.0 | 0.00 | 0.01 | 0.01 | 53 | |
| 20260506182704 | 61 | 28 | 1.0 | 3.0 | 0.00 | 0.01 | 0.01 | 51 | |
| 20260506181824 | 61 | 77 | 1.0 | 3.0 | 0.00 | 0.01 | 0.01 | 50 | |
| 20260506180903 | 62 | 99 | 1.0 | 4.0 | 0.00 | 0.01 | 0.01 | 46 | |
| 20260506180005 | 63 | 64 | 1.0 | 4.0 | 0.00 | 0.01 | 0.01 | 46 | |
| 20260506175404 | 63 | 80 | 2.0 | 6.0 | 0.00 | 0.01 | 0.01 | 46 | |
| 20260506174504 | 63 | 69 | 2.0 | 4.0 | 0.00 | 0.01 | 0.01 | 48 | |
| 20260506173625 | 62 | 53 | 2.0 | 5.0 | 0.00 | 0.01 | 0.01 | 50 | |
| 20260506172704 | 62 | 80 | 1.0 | 4.0 | 0.00 | 0.01 | 0.01 | 51 | |
| 20260506171804 | 61 | 122 | 2.0 | 4.0 | 0.00 | 0.01 | 0.01 | 49 | |
| 20260506170904 | 61 | 113 | 3.0 | 6.0 | 0.00 | 0.01 | 0.01 | 49 | |
| 20260506170004 | 62 | 124 | 4.0 | 7.0 | 0.00 | 0.01 | 0.01 | 48 | |
| 20260506165405 | 62 | 102 | 2.0 | 6.0 | 0.00 | 0.01 | 0.01 | 49 | |
| 20260506164504 | 62 | 85 | 2.0 | 5.0 | 0.00 | 0.01 | 0.01 | 48 | |
| 20260506163604 | 62 | 98 | 4.0 | 7.0 | 0.00 | 0.01 | 0.01 | 50 | |
| 20260506162704 | 62 | 64 | 3.0 | 6.0 | 0.00 | 0.01 | 0.01 | 47 | |
| 20260506161826 | 62 | 66 | 3.0 | 7.0 | 0.00 | 0.01 | 0.01 | 50 | |
| 20260506160904 | 62 | 83 | 2.0 | 6.0 | 0.00 | 0.01 | 0.01 | 48 | |
| 20260506160025 | 62 | 78 | 3.0 | 7.0 | 0.00 | 0.01 | 0.01 | 52 | |
| 20260506155405 | 62 | 139 | 4.0 | 9.0 | 0.00 | 0.01 | 0.01 | 52 | |
| 20260506154504 | 61 | 172 | 5.0 | 10.0 | 0.00 | 0.01 | 0.01 | 56 | |
| 20260506153625 | 60 | 169 | 5.0 | 11.0 | 0.00 | 0.01 | 0.01 | 58 | |
| 20260506152704 | 60 | 117 | 3.0 | 7.0 | 0.00 | 0.01 | 0.01 | 51 | |
| 20260506151804 | 60 | 243 | 2.0 | 5.0 | 0.00 | 0.01 | 0.01 | 50 | |
| 20260506150904 | 60 | 242 | 4.0 | 7.0 | 0.00 | 0.01 | 0.01 | 49 | |
| 20260506150004 | 60 | 292 | 3.0 | 10.0 | 0.00 | 0.01 | 0.01 | 50 | |
| 20260506145425 | 61 | 337 | 4.0 | 10.0 | 0.00 | 0.01 | 0.01 | 48 | |
| 20260506144504 | 62 | 349 | 5.0 | 10.0 | 0.00 | 0.01 | 0.01 | 49 | |
| 20260506143625 | 62 | 351 | 6.0 | 11.0 | 0.00 | 0.01 | 0.01 | 51 | |
| 20260506142704 | 63 | 46 | 3.0 | 7.0 | 0.00 | 0.01 | 0.01 | 47 | |
| 20260506141804 | 63 | 58 | 4.0 | 8.0 | 0.00 | 0.01 | 0.01 | 48 | |
| 20260506140925 | 62 | 34 | 4.0 | 12.0 | 0.00 | 0.01 | 0.01 | 51 | |
| 20260506140005 | 61 | 15 | 4.0 | 12.0 | 0.00 | 0.01 | 0.01 | 55 | |
| 20260506135404 | 60 | 359 | 2.0 | 6.0 | 0.00 | 0.01 | 0.01 | 53 | |
| 20260506134504 | 61 | 90 | 3.0 | 8.0 | 0.00 | 0.01 | 0.01 | 52 | |
| 20260506133604 | 60 | 154 | 4.0 | 8.0 | 0.00 | 0.01 | 0.01 | 54 | |
| 20260506132725 | 60 | 129 | 2.0 | 6.0 | 0.00 | 0.01 | 0.01 | 53 | |
| 20260506131804 | 61 | 12 | 2.0 | 5.0 | 0.00 | 0.01 | 0.01 | 54 | |
| 20260506130904 | 60 | 162 | 3.0 | 8.0 | 0.00 | 0.01 | 0.01 | 54 | |
| 20260506130026 | 60 | 178 | 3.0 | 7.0 | 0.00 | 0.01 | 0.01 | 57 | |
| 20260506125405 | 58 | 233 | 3.0 | 7.0 | 0.00 | 0.01 | 0.01 | 56 | |
| 20260506124504 | 58 | 271 | 4.0 | 8.0 | 0.00 | 0.01 | 0.01 | 57 | |
| 20260506123604 | 58 | 313 | 2.0 | 5.0 | 0.00 | 0.01 | 0.01 | 58 | |
| 20260506122704 | 58 | 151 | 2.0 | 7.0 | 0.00 | 0.01 | 0.01 | 57 | |
| 20260506121804 | 58 | 121 | 2.0 | 5.0 | 0.00 | 0.01 | 0.01 | 57 | |
| 20260506120904 | 58 | 115 | 4.0 | 7.0 | 0.00 | 0.01 | 0.01 | 57 | |
| 20260506120005 | 58 | 39 | 3.0 | 7.0 | 0.00 | 0.01 | 0.01 | 62 | |
| 20260506115404 | 57 | 31 | 3.0 | 7.0 | 0.00 | 0.01 | 0.01 | 62 | |
| 20260506114504 | 57 | 71 | 3.0 | 8.0 | 0.00 | 0.01 | 0.01 | 62 | |
| 20260506113604 | 57 | 56 | 3.0 | 8.0 | 0.00 | 0.01 | 0.01 | 64 | |
| 20260506112725 | 56 | 296 | 3.0 | 7.0 | 0.00 | 0.01 | 0.01 | 65 | |
| 20260506111805 | 56 | 326 | 1.0 | 5.0 | 0.00 | 0.01 | 0.01 | 66 | |
| 20260506110904 | 56 | 86 | 2.0 | 8.0 | 0.00 | 0.01 | 0.01 | 67 | |
| 20260506110025 | 56 | 84 | 3.0 | 8.0 | 0.00 | 0.01 | 0.01 | 66 | |
| 20260506105404 | 57 | 71 | 3.0 | 7.0 | 0.00 | 0.01 | 0.01 | 66 | |
| 20260506104504 | 57 | 160 | 4.0 | 10.0 | 0.00 | 0.01 | 0.01 | 69 | |
| 20260506103604 | 57 | 133 | 4.0 | 10.0 | 0.00 | 0.01 | 0.01 | 65 | |
| 20260506102704 | 56 | 77 | 3.0 | 10.0 | 0.00 | 0.01 | 0.01 | 73 | |
| 20260506101804 | 55 | 122 | 4.0 | 13.0 | 0.00 | 0.01 | 0.01 | 73 | |
| 20260506100904 | 54 | 127 | 6.0 | 13.0 | 0.00 | 0.01 | 0.01 | 74 | |
| 20260506100005 | 54 | 135 | 5.0 | 10.0 | 0.00 | 0.01 | 0.01 | 76 | |
| 20260506095425 | 54 | 137 | 3.0 | 10.0 | 0.00 | 0.01 | 0.01 | 77 | |
| 20260506094504 | 53 | 93 | 3.0 | 8.0 | 0.00 | 0.01 | 0.01 | 78 | |
| 20260506093604 | 52 | 78 | 5.0 | 11.0 | 0.00 | 0.01 | 0.01 | 80 | |
| 20260506092704 | 52 | 113 | 4.0 | 10.0 | 0.00 | 0.01 | 0.01 | 84 | |
| 20260506091804 | 50 | 133 | 3.0 | 8.0 | 0.00 | 0.01 | 0.01 | 84 | |
| 20260506090903 | 49 | 145 | 3.0 | 8.0 | 0.00 | 0.01 | 0.01 | 87 | |
| 20260506090004 | 48 | 163 | 2.0 | 7.0 | 0.00 | 0.01 | 0.01 | 89 | |
| 20260506085404 | 48 | 149 | 2.0 | 7.0 | 0.00 | 0.01 | 0.01 | 91 | |
| 20260506084504 | 47 | 120 | 3.0 | 7.0 | 0.00 | 0.01 | 0.01 | 91 | |
| 20260506083604 | 46 | 98 | 4.0 | 9.0 | 0.00 | 0.01 | 0.01 | 92 | |
| 20260506082703 | 46 | 98 | 3.0 | 8.0 | 0.00 | 0.01 | 0.01 | 94 | |
| 20260506081825 | 45 | 116 | 3.0 | 7.0 | 0.00 | 0.01 | 0.01 | 95 | |
| 20260506080904 | 44 | 134 | 3.0 | 6.0 | 0.00 | 0.01 | 0.01 | 96 | |
| 20260506072704 | 43 | 126 | 5.0 | 10.0 | 0.00 | 0.01 | 0.01 | 97 | |
| 20260506071804 | 42 | 127 | 5.0 | 10.0 | 0.00 | 0.01 | 0.01 | 96 | |
| 20260506070904 | 42 | 120 | 4.0 | 7.0 | 0.00 | 0.01 | 0.01 | 97 | |
| 20260506061804 | 42 | 142 | 0.0 | 2.0 | 0.00 | 0.01 | 0.01 | 97 | |
| 20260506060924 | 42 | 130 | 0.0 | 2.0 | 0.00 | 0.01 | 0.01 | 96 | |
| 20260506050924 | 41 | 79 | 2.0 | 4.0 | 0.00 | 0.01 | 0.01 | 97 | |
| 20260506044504 | 40 | 157 | 3.0 | 6.0 | 0.00 | 0.01 | 0.01 | 96 | |
| 20260506043624 | 39 | 140 | 2.0 | 4.0 | 0.00 | 0.01 | 0.01 | 97 | |
| 20260506042704 | 38 | 95 | 1.0 | 3.0 | 0.00 | 0.01 | 0.01 | 95 | |
| 20260506041825 | 38 | 94 | 0.0 | 2.0 | 0.00 | 0.01 | 0.01 | 95 | |
| 20260506040904 | 38 | 52 | 0.0 | 3.0 | 0.00 | 0.01 | 0.01 | 95 | |
| 20260506040004 | 38 | 74 | 1.0 | 4.0 | 0.01 | 0.01 | 0.01 | 94 | |
| 20260506035403 | 38 | 250 | 0.0 | 2.0 | 0.01 | 0.01 | 0.01 | 94 | |
| 20260506034504 | 38 | 0 | 0.0 | 0.0 | 0.01 | 0.01 | 0.01 | 94 | |
| 20260506033604 | 39 | 69 | 0.0 | 3.0 | 0.01 | 0.01 | 0.01 | 94 | |
| 20260506032724 | 40 | 69 | 0.0 | 3.0 | 0.01 | 0.01 | 0.01 | 95 | |
| 20260506031803 | 40 | 215 | 1.0 | 3.0 | 0.01 | 0.01 | 0.01 | 95 | |
| 20260506030924 | 40 | 241 | 0.0 | 2.0 | 0.01 | 0.01 | 0.01 | 95 | |
| 20260506030004 | 40 | 276 | 0.0 | 2.0 | 0.00 | 0.00 | 0.00 | 94 | |
| 20260506025404 | 40 | 274 | 1.0 | 4.0 | 0.00 | 0.00 | 0.00 | 95 | |
| 20260506024503 | 41 | 256 | 2.0 | 4.0 | 0.00 | 0.00 | 0.00 | 94 | |
| 20260506023603 | 41 | 230 | 2.0 | 4.0 | 0.00 | 0.00 | 0.00 | 95 | |
| 20260506022703 | 41 | 228 | 2.0 | 4.0 | 0.00 | 0.00 | 0.00 | 95 | |
| 20260506021803 | 41 | 244 | 2.0 | 4.0 | 0.00 | 0.00 | 0.00 | 95 | |
| 20260506020903 | 41 | 285 | 3.0 | 6.0 | 0.00 | 0.00 | 0.00 | 94 | |
| 20260506020004 | 41 | 275 | 4.0 | 6.0 | 0.00 | 0.00 | 0.00 | 94 | |
| 20260506015403 | 41 | 275 | 3.0 | 6.0 | 0.00 | 0.00 | 0.00 | 94 | |
| 20260506014504 | 41 | 255 | 2.0 | 5.0 | 0.00 | 0.00 | 0.00 | 94 | |
| 20260506013604 | 42 | 231 | 2.0 | 5.0 | 0.00 | 0.00 | 0.00 | 94 | |
| 20260506012704 | 42 | 216 | 1.0 | 4.0 | 0.00 | 0.00 | 0.00 | 94 | |
| 20260506011803 | 42 | 242 | 2.0 | 4.0 | 0.00 | 0.00 | 0.00 | 94 | |
| 20260506010903 | 42 | 257 | 2.0 | 4.0 | 0.00 | 0.00 | 0.00 | 94 | |
| 20260506010004 | 42 | 251 | 3.0 | 5.0 | 0.00 | 0.00 | 0.00 | 93 | |
| 20260506005404 | 42 | 251 | 2.0 | 4.0 | 0.00 | 0.00 | 0.00 | 93 | |
| 20260506004504 | 43 | 289 | 2.0 | 5.0 | 0.00 | 0.00 | 0.00 | 94 | |
| 20260506003604 | 43 | 289 | 3.0 | 5.0 | 0.00 | 0.00 | 0.00 | 94 | |
| 20260506002703 | 43 | 297 | 4.0 | 7.0 | 0.00 | 0.00 | 0.00 | 94 | |
| 20260506001803 | 42 | 289 | 4.0 | 6.0 | 0.00 | 0.00 | 0.00 | 94 | |
| 20260506000924 | 42 | 283 | 4.0 | 6.0 | 0.00 | 0.00 | 0.00 | 93 | |
| 20260506000035 | 42 | 261 | 3.0 | 5.0 | 0.00 | 0.00 | 0.00 | 93 | |
| 20260505235403 | 42 | 268 | 3.0 | 5.0 | 0.00 | 0.00 | 0.00 | 93 | |
| 20260505234503 | 42 | 268 | 3.0 | 5.0 | 0.00 | 0.00 | 0.00 | 93 | |
| 20260505233604 | 42 | 285 | 2.0 | 5.0 | 0.00 | 0.00 | 0.00 | 92 |